This is the latest recevied weather packets stored in our database for station/object HOTSPR-3. If no packets are shown the sender has not sent any weather packets the latest 10 day(s).
| Time | Temp. | Humidity | Pressure | Rain* | Wind** | Luminosity | Snow |
|---|---|---|---|---|---|---|---|
| 1777820847 | 21.11° C | 39% | 1018.5 hPa | 0 mm | - | - | - |
| 1777820546 | 21.11° C | 39% | 1018.7 hPa | 0 mm | - | - | - |
| 1777820246 | 20.56° C | 39% | 1018.5 hPa | 0 mm | - | - | - |
| 1777819946 | 20.56° C | 39% | 1018.5 hPa | 0 mm | - | - | - |
| 1777819045 | 19.44° C | 39% | 1018.6 hPa | 0 mm | - | - | - |
| 1777818745 | 19.44° C | 38% | 1018.6 hPa | 0 mm | - | - | - |
| 1777818445 | 19.44° C | 38% | 1018.6 hPa | 0 mm | - | - | - |
| 1777818145 | 19.44° C | 37% | 1018.7 hPa | 0 mm | - | - | - |
| 1777817845 | 18.89° C | 37% | 1018.7 hPa | 0 mm | - | - | - |
| 1777817545 | 18.89° C | 37% | 1018.7 hPa | 0 mm | - | - | - |
| 1777816644 | 18.33° C | 38% | 1018.4 hPa | 0 mm | - | - | - |
| 1777816344 | 17.78° C | 37% | 1018.5 hPa | 0 mm | - | - | - |
| 1777816043 | 17.78° C | 37% | 1018.6 hPa | 0 mm | - | - | - |
| 1777815443 | 17.22° C | 37% | 1018.8 hPa | 0 mm | - | - | - |
| 1777815143 | 17.22° C | 37% | 1018.7 hPa | 0 mm | - | - | - |
| 1777814843 | 17.22° C | 36% | 1018.7 hPa | 0 mm | - | - | - |
| 1777814243 | 16.67° C | 36% | 1018.5 hPa | 0 mm | - | - | - |
| 1777813642 | 16.67° C | 35% | 1018.5 hPa | 0 mm | - | - | - |
| 1777813342 | 16.67° C | 36% | 1018.4 hPa | 0 mm | - | - | - |
| 1777812742 | 15.56° C | 37% | 1018.5 hPa | 0 mm | - | - | - |
| 1777812442 | 15° C | 36% | 1018.2 hPa | 0 mm | - | - | - |
| 1777811541 | 14.44° C | 35% | 1018 hPa | 0 mm | - | - | - |
| 1777811241 | 14.44° C | 35% | 1018 hPa | 0 mm | - | - | - |
| 1777810640 | 14.44° C | 34% | 1018 hPa | 0 mm | - | - | - |
| 1777810340 | 14.44° C | 34% | 1017.9 hPa | 0 mm | - | - | - |
* Rain since midnight (hover to see other rain measurements)
** Current wind speed in m/s (hover to see current wind gust speed)